False Pass, AK

1:23 PM AKDT on March 27, 2017 (GMT -0800)
False Pass

Weather History for PAKF - August, 2013

Change the Weather History Date:

Thursday, August 8, 2013

  Actual Average (PACD) Record (PACD)
Temperature  
Mean Temperature 53 °F -  
Max Temperature 50 °F 55 °F 64 °F (2015)
Min Temperature 51 °F 48 °F 43 °F (1972)
Degree Days  
Heating Degree Days 12    
Growing Degree Days 3 (Base 50)    
Moisture  
Dew Point 48 °F    
Average Humidity 83    
Maximum Humidity 96    
Minimum Humidity 66    
Precipitation  
Precipitation 0.01 in - - ()
Sea Level Pressure  
Sea Level Pressure 29.63 in    
Wind  
Wind Speed 7 mph (South)    
Max Wind Speed 15 mph    
Max Gust Speed 24 mph    
Visibility 10 miles    
Events Rain    
Averages and records for this station are not official NWS values.
T = Trace of Precipitation, MM = Missing Value Source: NWS Daily Summary

Daily Weather History Graph

Daily Weather History Graph

Search for Another Location

Airport or City:

Trip Planner

Search our weather history database for the weather conditions in past years. The results will help you decide how hot, cold, wet, or windy it might be!

Date:

Astronomy

Aug. 08, 2013 Rise Set
Actual Time 6:16 AM HDT 9:40 PM HDT
Civil Twilight 5:33 AM HDT 10:23 PM HDT
Nautical Twilight 4:33 AM HDT 11:22 PM HDT
Astronomical Twilight 2:59 AM HDT 12:52 AM HDT
Moon 8:46 AM HDT (8/8) 9:49 PM HDT (8/8)
Length of Visible Light 16h 50m
Length of Day
15h 23m
Waxing Crescent, 4% of the Moon is Illuminated
Aug 8
Waxing Crescent
Aug 14
First Quarter
Aug 20
Full
Aug 28
Last Quarter
Sep 5
New

Hourly Weather History & Observations

Time (HDT) Temp. Dew Point Humidity Pressure Visibility Wind Dir Wind Speed Gust Speed Precip Events Conditions
12:01 AM 52.0 °F 50.0 °F 93% 29.72 in 5.0 mi SSE 11.5 mph 24.2 mph 0.00 in Rain Light Rain
12:32 AM 53.6 °F 50.0 °F 88% 29.44 in 7.0 mi SSE 11.5 mph 23.0 mph 0.01 in Rain Light Rain
12:49 AM 53.6 °F 50.0 °F 88% 29.44 in 8.0 mi SSE 13.8 mph 24.2 mph 0.01 in Rain Light Rain
12:57 AM 53.6 °F 50.0 °F 88% 29.44 in 9.0 mi SSE 9.2 mph 21.9 mph 0.01 in Rain Light Rain
1:01 AM 53.6 °F 50.0 °F 88% 29.44 in 10.0 mi South 12.7 mph 21.9 mph 0.01 in Rain Light Rain
1:07 AM 53.1 °F 50.0 °F 89% 29.72 in 10.0 mi SSE 5.8 mph 21.9 mph 0.01 in   Overcast
1:23 AM 53.6 °F 50.0 °F 88% 29.44 in 10.0 mi SSE 9.2 mph - N/A   Overcast
1:49 AM 53.6 °F 50.0 °F 88% 29.44 in 10.0 mi Calm Calm - N/A   Overcast
2:01 AM 52.0 °F 48.9 °F 89% 29.72 in 10.0 mi Calm Calm - N/A   Overcast
2:43 AM 51.8 °F 50.0 °F 94% 29.44 in 10.0 mi Calm Calm - N/A   Overcast
3:01 AM 52.0 °F 50.0 °F 93% 29.72 in 10.0 mi Calm Calm - N/A   Overcast
4:01 AM 51.1 °F 50.0 °F 96% 29.70 in 10.0 mi Calm Calm - N/A   Overcast
5:01 AM 51.8 °F 44.6 °F 76% 29.42 in 10.0 mi WSW 15.0 mph 21.9 mph N/A   Overcast
6:01 AM 52.0 °F 44.1 °F 74% 29.70 in 10.0 mi WSW 12.7 mph 23.0 mph N/A   Clear
6:41 AM 51.8 °F 44.6 °F 76% 29.43 in 10.0 mi Variable 4.6 mph - N/A   Mostly Cloudy
7:01 AM 52.0 °F 45.0 °F 77% 29.72 in 10.0 mi Calm Calm - N/A   Overcast
7:34 AM 51.8 °F 44.6 °F 76% 29.44 in 10.0 mi Variable 3.5 mph 17.3 mph N/A   Overcast
8:01 AM 51.8 °F 44.6 °F 76% 29.44 in 10.0 mi West 12.7 mph 21.9 mph N/A   Overcast
8:08 AM 51.8 °F 44.6 °F 76% 29.45 in 10.0 mi West 13.8 mph 23.0 mph N/A   Overcast
8:22 AM 53.6 °F 44.6 °F 72% 29.45 in 10.0 mi WNW 12.7 mph 20.7 mph N/A   Overcast
8:30 AM 53.6 °F 42.8 °F 67% 29.45 in 10.0 mi WNW 6.9 mph 18.4 mph N/A   Overcast
9:01 AM 54.0 °F 43.0 °F 66% 29.73 in 10.0 mi Calm Calm - N/A   Scattered Clouds
10:01 AM 55.9 °F 45.0 °F 67% 29.75 in 10.0 mi North - - N/A   Mostly Cloudy
11:01 AM 55.9 °F 45.0 °F 67% 29.76 in 10.0 mi Variable 5.8 mph - N/A   Mostly Cloudy
12:01 PM 54.0 °F 48.0 °F 80% 29.78 in 10.0 mi Variable 3.5 mph - N/A   Overcast
1:01 PM 55.9 °F 48.0 °F 75% 29.79 in 10.0 mi North - - N/A   Overcast
2:01 PM 55.9 °F 46.9 °F 72% 29.79 in 10.0 mi North - - N/A   Overcast
2:56 PM 53.6 °F 48.2 °F 82% 29.52 in 10.0 mi ESE 5.8 mph - 0.00 in Rain Light Rain
3:01 PM 54.0 °F 48.9 °F 83% 29.80 in 10.0 mi ESE 5.8 mph - 0.00 in Rain Light Rain
4:01 PM 53.1 °F 48.9 °F 86% 29.81 in 10.0 mi Calm Calm - 0.00 in   Overcast
4:26 PM 53.6 °F 48.2 °F 82% 29.53 in 10.0 mi Calm Calm - 0.00 in   Overcast
5:01 PM 53.1 °F 50.0 °F 89% 29.81 in 10.0 mi Calm Calm - 0.00 in   Overcast
5:20 PM 53.6 °F 48.2 °F 82% 29.53 in 10.0 mi North 4.6 mph - 0.00 in   Overcast
6:01 PM 53.1 °F 50.0 °F 89% 29.81 in 10.0 mi Calm Calm - 0.00 in   Overcast
6:42 PM 53.6 °F 50.0 °F 88% 29.54 in 10.0 mi Calm Calm - N/A   Overcast
7:01 PM 53.1 °F 50.0 °F 89% 29.81 in 10.0 mi NNW 3.5 mph - N/A   Overcast
7:08 PM 53.6 °F 50.0 °F 88% 29.54 in 10.0 mi Calm Calm - N/A   Overcast
8:01 PM 53.1 °F 50.0 °F 89% 29.83 in 10.0 mi Calm Calm - N/A   Overcast
9:01 PM 52.0 °F 50.0 °F 93% 29.84 in 10.0 mi Calm Calm - N/A   Overcast
10:01 PM 52.0 °F 50.0 °F 93% 29.85 in 10.0 mi Calm Calm - N/A   Overcast
11:01 PM 51.1 °F 48.9 °F 92% 29.86 in 10.0 mi East 4.6 mph - N/A   Overcast